Regional Weather Roundup
Issued by NWS

Home | Current Version | Previous Version | Graphics & Text | Print | Product List | Glossary On
Versions: 1 2 3 4 5 6 7 8 9 10 11 12 13 14 15 16 17 18 19 20 21 22 23 24 25 26 27 28 29 30 31 32 33 34 35 36 37 38 39 40 41 42 43 44 45 46 47 48 49 50
798
ASUS43 KMKX 010211
RWRWI

WISCONSIN REGIONAL WEATHER ROUNDUP
NATIONAL WEATHER SERVICE MILWAUKEE/SULLIVAN WI
900 PM CDT SAT APR 30 2016

NOTE: "FAIR" INDICATES FEW OR NO CLOUDS BELOW 12,000 FEET WITH NO
SIGNIFICANT WEATHER AND/OR OBSTRUCTIONS TO VISIBILITY.

WIZ001-002-006>008-014>016-023>028-010300-
NORTHWEST WISCONSIN

CITY           SKY/WX    TMP DP  RH WIND       PRES   REMARKS
SUPERIOR ARPT  CLOUDY    39  30  70 NE12G18   30.24S WCI  32
ASHLAND        CLOUDY    38  32  79 NE10      30.23S WCI  31
HAYWARD        PTCLDY    41  30  65 NE16      30.17S
SIREN          CLOUDY    44  26  47 NE12G18   30.16R
CUMBERLAND     CLOUDY    43  30  61 NE16G25   30.11R
RICE LAKE      CLOUDY    46  32  56 N21       30.11S
CHETEK         CLOUDY    48  34  58 NE10G16   30.10R
LADYSMITH      CLOUDY    47  34  60 N13G18    30.12R
EAU CLAIRE     CLOUDY    50  34  54 SE9       30.06R
MENOMONIE      CLOUDY    52  34  49 NE8       30.08R
NEW RICHMOND   CLOUDY    48  30  49 NE20G28   30.09S
OSCEOLA        CLOUDY    48  30  49 NE20      30.13S
$$

WIZ003>005-009-010-017-018-010300-
NORTH CENTRAL WISCONSIN

CITY           SKY/WX    TMP DP  RH WIND       PRES   REMARKS
MANITOWISH WTR MOCLDY    42  31  64 NE13      30.16S
ARBOR VITAE    PTCLDY    44  31  60 NE14G22   30.15S
WOODRUFF       PTCLDY    44  31  60 NE14G22   30.15S
RHINELANDER    CLOUDY    49  31  49 N9        30.11F
EAGLE RIVER    CLOUDY    43  30  60 NE13      30.15S
LAND O LAKES   PTCLDY    41  31  68 N9        30.19R
PHILLIPS       CLOUDY    46  33  61 NE15      30.11S
TOMAHAWK       CLOUDY    49  31  49 NE7       30.11S
MEDFORD        CLOUDY    48  35  61 E6        30.07S
MERRILL        CLOUDY    52  34  50 E13       30.09S
$$

WIZ029-030-035-036-043>047-010300-
CENTRAL WISCONSIN

CITY           SKY/WX    TMP DP  RH WIND       PRES   REMARKS
WAUSAU         CLOUDY    52  33  48 E6        30.06S
MOSINEE        NOT AVBL
MARSHFIELD     CLOUDY    50  32  50 E9        30.05S
STEVENS POINT  DRIZZLE   46  33  59 E16G22    30.07S
WAUPACA        DRIZZLE   48  35  60 NE8       30.05F
WAUTOMA        LGT RAIN  44  39  82 NE7       30.06S
WISC RAPIDS    LGT RAIN  47  32  56 E14G24    30.07S
CAMP DOUGLAS   DRIZZLE   43  43 100 NE9       30.04S
$$

WIZ011>013-019>022-031-037>040-048>050-010300-
NORTHEAST WISCONSIN

CITY           SKY/WX    TMP DP  RH WIND       PRES   REMARKS
ANTIGO         CLOUDY    47  35  64 NE6       30.09S
SHAWANO        CLOUDY    53  34  48 NE12G17   30.09S
OCONTO         CLOUDY    50  32  50 NE9       30.09F
STURGEON BAY   CLOUDY    46  32  57 NE16      30.11F
GREEN BAY      LGT RAIN  49  36  61 NE21G31   30.08F
MANITOWOC      LGT RAIN  47  33  58 MISG      30.07S
APPLETON       CLOUDY    48  32  53 NE7       30.06S
CLINTONVILLE   CLOUDY    50  30  46 E7        30.07F
OSHKOSH        LGT RAIN  47  36  65 NE10      30.02F
$$

WIZ032>034-041-042-053>061-010300-
SOUTHWEST WISCONSIN

CITY           SKY/WX    TMP DP  RH WIND       PRES   REMARKS
LA CROSSE      LGT RAIN  45  39  79 CALM      30.04R
SPARTA         LGT RAIN  44  38  80 E8        30.05S
VIROQUA        CLOUDY    43  40  90 NE13      30.02R
BOSCOBEL       LGT RAIN  45  45 100 E7        30.01R FOG
PRAIRIE DU CHI DRIZZLE   44  41  89 NE5       30.00R
PLATTEVILLE    CLOUDY    44  42  91 NE16G26   29.96R
$$

WIZ056-057-062-063-064-067-068-010300-
SOUTH CENTRAL WISCONSIN

CITY           SKY/WX    TMP DP  RH WIND       PRES   REMARKS
REEDSBURG      CLOUDY    43  42  95 NE10      30.02S
BARABOO/DELLS  DRIZZLE   43  41  92 NE13      30.02S
LONE ROCK      CLOUDY    46  40  79 NE10G22   30.01R
MINERAL POINT  LGT RAIN  45  41  87 NE16      29.97S
MADISON        CLOUDY    44  39  82 NE16      30.00R
MIDDLETON      CLOUDY    45  41  85 E17       30.00S
WATERTOWN      CLOUDY    41  41 100 NE14G20   29.98F
MONROE         CLOUDY    43  41  93 NE18G25   29.95S
JANESVILLE     CLOUDY    45  43  93 NE13G20   29.96R
$$

WIZ051-052-058>065-066-070>072-010300-
SOUTHEAST WISCONSIN

CITY           SKY/WX    TMP DP  RH WIND       PRES   REMARKS
MILWAUKEE      RAIN      42  40  92 N15       30.01F FOG
WAUKESHA       RAIN      39  39 100 NE9       30.02S FOG     WCI  33
MILWAUKEE/TIMM RAIN      43  39  87 NE8       30.05R
RACINE         LGT RAIN  43  41  93 NE14G22   30.02R
BURLINGTON     DRIZZLE   42  41  97 NE12      29.97F
KENOSHA        CLOUDY    44  42  93 NE16      29.98R
FOND DU LAC    LGT RAIN  44  38  79 NE12      30.02F
SHEBOYGAN      LGT RAIN  43  37  79 NE7       30.06S
WEST BEND      RAIN      41  37  87 NE12      30.03F
JUNEAU         DRIZZLE   42  39  91 NE12      30.03S
$$

LSZ147-162-010300-
LAKE SUPERIOR

STATION/POSITION TIME  TEMP    WIND        PRES    WAVE
                       AIR SEA DIR/SP/G            HT/PER
                 (UTC) (F)     (DEG/KT/KT) (MB)    (FT/S)
W MID LAKE BUOY  0150   38 37   40/  6/  6 1025.1S   1/ 4
DEVILS ISLAND    0200   40      70/ 15/ 16 1024.9S
PORT WING        0100   40      40/ 12/ 14 1024.0R
SAXON HARBOR     0100   41      50/ 15/ 18 1022.7R
$$

LMZ867-665-643>646-010300-
LAKE MICHIGAN

STATION/POSITION TIME  TEMP    WIND        PRES    WAVE
                       AIR SEA DIR/SP/G            HT/PER
                 (UTC) (F)     (DEG/KT/KT) (MB)    (FT/S)
CHAMBERS ISLAND  0100   45     360/ 16/ 19 1020.3R
N MID LAKE BUOY  0150   43 38   20/ 16/ 19 1019.9R   2/ 3
NORTHPORT PIER   0100   46      10/ 17/ 21 1020.0R
ALGOMA LAKESHORE 0100           30/ 14/ 20   N/A
KEWAUNEE LAKESHO 0100   45      20/ 12/ 17 1017.9R
SHEBOYGAN LAKESH 0200   42      30/  9/  9 1018.8R
PORT WASHINGTON  0100   42      20/  6/ 12 1018.3S
S MID LAKE BUOY  0150   44 40   50/ 19/ 21 1014.0F   1/ 3
KENOSHA   LAKESH 0200   44      10/ 21/ 25 1015.2R
$$

TC  - TEMPERATURE IN CELSIUS
VSB - VISIBILITY IN STATUTE MILES
WCI - WIND CHILL INDEX
HX  - HEAT INDEX





USA.gov is the U.S. government's official web portal to all federal, state and local government web resources and services.